User: anonymous   Login
Location: Azul
(36.7830°S, 59.8500°W)
Time: 09:03:19
(UTC-03:00)
Language:

METEOR M2 - Orbit

View from above orbital plane
View from above orbital plane
View from above satellite
View from above satellite

Ground track
Ground track

The orbit data is extracted from the following two-line orbital elements,

1 40069U 14037A   21295.06563141 -.00000026  00000-0  72963-5 0  9990
2 40069  98.4523 318.5347 0004663 302.9050  57.1678 14.20689875378014
Epoch (UTC): 22 October 2021 01:34:30
Eccentricity: 0.0004663
inclination: 98.4523°
perigee height: 819 km
apogee height: 826 km
right ascension of ascending node: 318.5347°
argument of perigee: 302.9050°
revolutions per day: 14.20689875
mean anomaly at epoch: 57.1678°
orbit number at epoch: 37801

The dashed part of the orbit path shows where the satellite is in the earth's shadow,  

DLR